Year,Month,Day,Hour,Minute,Value (Times are PST for temperature in C)
2023,05,15,00,00,16.30
2023,05,15,00,01,16.20
2023,05,15,00,02,16.10
2023,05,15,00,03,16.10
2023,05,15,00,04,16.10
2023,05,15,00,05,16.10
2023,05,15,00,06,15.90
2023,05,15,00,07,15.90
2023,05,15,00,08,15.90
2023,05,15,00,09,15.80
2023,05,15,00,10,15.90
2023,05,15,00,11,15.90
2023,05,15,00,12,15.90
2023,05,15,00,13,15.90
2023,05,15,00,14,16.10
2023,05,15,00,15,16.10
2023,05,15,00,16,16.10
2023,05,15,00,17,16.10
2023,05,15,00,18,16.10
2023,05,15,00,19,16.20
2023,05,15,00,20,16.20
2023,05,15,00,21,16.30
2023,05,15,00,22,16.30
2023,05,15,00,23,16.40
2023,05,15,00,24,16.40
2023,05,15,00,25,16.40
2023,05,15,00,26,16.40
2023,05,15,00,27,16.40
2023,05,15,00,28,16.60
2023,05,15,00,29,16.60
2023,05,15,00,30,16.60
2023,05,15,00,32,16.60
2023,05,15,00,33,16.40
2023,05,15,00,34,16.40
2023,05,15,00,35,16.40
2023,05,15,00,36,16.40
2023,05,15,00,37,16.40
2023,05,15,00,38,16.40
2023,05,15,00,39,16.40
2023,05,15,00,40,16.40
2023,05,15,00,41,16.40
2023,05,15,00,42,16.40
2023,05,15,00,43,16.40
2023,05,15,00,44,16.40
2023,05,15,00,45,16.40
2023,05,15,00,46,16.40
2023,05,15,00,47,16.40
2023,05,15,00,48,16.40
2023,05,15,00,49,16.60
2023,05,15,00,50,16.60
2023,05,15,00,51,16.70
2023,05,15,00,52,16.70
2023,05,15,00,53,16.70
2023,05,15,00,54,16.70
2023,05,15,00,55,16.70
2023,05,15,00,56,16.80
2023,05,15,00,57,16.80
2023,05,15,00,58,16.90
2023,05,15,00,59,17.00
2023,05,15,01,00,17.00
2023,05,15,01,01,17.00
2023,05,15,01,02,17.10
2023,05,15,01,03,17.10
2023,05,15,01,04,17.10
2023,05,15,01,05,17.20
2023,05,15,01,06,17.20
2023,05,15,01,07,17.20
2023,05,15,01,08,17.20
2023,05,15,01,09,17.20
2023,05,15,01,10,17.20
2023,05,15,01,11,17.20
2023,05,15,01,12,17.20
2023,05,15,01,13,17.10
2023,05,15,01,14,17.10
2023,05,15,01,15,17.10
2023,05,15,01,16,17.00
2023,05,15,01,17,17.00
2023,05,15,01,18,17.00
2023,05,15,01,19,16.90
2023,05,15,01,20,16.90
2023,05,15,01,21,16.90
2023,05,15,01,22,16.80
2023,05,15,01,23,16.80
2023,05,15,01,24,16.80
2023,05,15,01,25,16.80
2023,05,15,01,26,16.80
2023,05,15,01,27,16.80
2023,05,15,01,28,16.70
2023,05,15,01,29,16.70
2023,05,15,01,30,16.70
2023,05,15,01,31,16.70
2023,05,15,01,33,16.70
2023,05,15,01,34,16.70
2023,05,15,01,36,16.70
2023,05,15,01,37,16.70
2023,05,15,01,38,16.70
2023,05,15,01,39,16.60
2023,05,15,01,41,16.60
2023,05,15,01,42,16.60
2023,05,15,01,43,16.40
2023,05,15,01,44,16.40
2023,05,15,01,45,16.40
2023,05,15,01,46,16.40
2023,05,15,01,47,16.40
2023,05,15,01,48,16.30
2023,05,15,01,49,16.30
2023,05,15,01,50,16.30
2023,05,15,01,51,16.20
2023,05,15,01,52,16.20
2023,05,15,01,53,16.20
2023,05,15,01,54,16.10
2023,05,15,01,55,16.10
2023,05,15,01,56,16.10
2023,05,15,01,57,15.90
2023,05,15,01,58,15.80
2023,05,15,01,59,15.80
2023,05,15,02,00,15.80
2023,05,15,02,01,15.70
2023,05,15,02,02,15.70
2023,05,15,02,03,15.60
2023,05,15,02,04,15.60
2023,05,15,02,05,15.50
2023,05,15,02,06,15.50
2023,05,15,02,07,15.40
2023,05,15,02,08,15.30
2023,05,15,02,09,15.30
2023,05,15,02,10,15.30
2023,05,15,02,11,15.20
2023,05,15,02,12,15.10
2023,05,15,02,13,15.10
2023,05,15,02,14,15.00
2023,05,15,02,15,14.90
2023,05,15,02,16,14.90
2023,05,15,02,17,14.90
2023,05,15,02,18,14.80
2023,05,15,02,19,14.80
2023,05,15,02,20,14.80
2023,05,15,02,21,14.80
2023,05,15,02,22,14.80
2023,05,15,02,23,14.80
2023,05,15,02,24,14.80
2023,05,15,02,25,14.80
2023,05,15,02,26,14.80
2023,05,15,02,27,14.80
2023,05,15,02,28,14.80
2023,05,15,02,29,14.80
2023,05,15,02,30,14.80
2023,05,15,02,31,14.80
2023,05,15,02,32,14.80
2023,05,15,02,33,14.80
2023,05,15,02,34,14.80
2023,05,15,02,35,14.90
2023,05,15,02,36,14.90
2023,05,15,02,37,14.90
2023,05,15,02,38,14.90
2023,05,15,02,39,14.90
2023,05,15,02,40,14.90
2023,05,15,02,41,14.90
2023,05,15,02,42,14.90
2023,05,15,02,43,14.90
2023,05,15,02,44,14.90
2023,05,15,02,45,14.90
2023,05,15,02,46,14.90
2023,05,15,02,47,14.90
2023,05,15,02,48,14.90
2023,05,15,02,49,14.80
2023,05,15,02,50,14.80
2023,05,15,02,51,14.80
2023,05,15,02,52,14.80
2023,05,15,02,53,14.80
2023,05,15,02,54,14.70
2023,05,15,02,55,14.70
2023,05,15,02,56,14.60
2023,05,15,02,57,14.60
2023,05,15,02,58,14.50
2023,05,15,02,59,14.50
2023,05,15,03,00,14.50
2023,05,15,03,01,14.40
2023,05,15,03,02,14.40
2023,05,15,03,03,14.40
2023,05,15,03,04,14.40
2023,05,15,03,05,14.40
2023,05,15,03,06,14.40
2023,05,15,03,07,14.40
2023,05,15,03,08,14.40
2023,05,15,03,09,14.40
2023,05,15,03,10,14.50
2023,05,15,03,11,14.50
2023,05,15,03,12,14.50
2023,05,15,03,13,14.50
2023,05,15,03,14,14.50
2023,05,15,03,15,14.50
2023,05,15,03,16,14.50
2023,05,15,03,17,14.50
2023,05,15,03,18,14.50
2023,05,15,03,19,14.50
2023,05,15,03,20,14.50
2023,05,15,03,21,14.60
2023,05,15,03,22,14.60
2023,05,15,03,23,14.60
2023,05,15,03,24,14.60
2023,05,15,03,25,14.60
2023,05,15,03,26,14.60
2023,05,15,03,27,14.60
2023,05,15,03,28,14.60
2023,05,15,03,29,14.60
2023,05,15,03,30,14.60
2023,05,15,03,31,14.60
2023,05,15,03,32,14.60
2023,05,15,03,33,14.60
2023,05,15,03,34,14.60
2023,05,15,03,35,14.60
2023,05,15,03,36,14.60
2023,05,15,03,37,14.50
2023,05,15,03,38,14.50
2023,05,15,03,39,14.50
2023,05,15,03,40,14.50
2023,05,15,03,41,14.60
2023,05,15,03,42,14.60
2023,05,15,03,43,14.60
2023,05,15,03,44,14.60
2023,05,15,03,45,14.60
2023,05,15,03,46,14.60
2023,05,15,03,47,14.60
2023,05,15,03,48,14.70
2023,05,15,03,49,14.70
2023,05,15,03,50,14.70
2023,05,15,03,51,14.70
2023,05,15,03,52,14.80
2023,05,15,03,53,14.80
2023,05,15,03,54,14.80
2023,05,15,03,55,14.80
2023,05,15,03,56,14.90
2023,05,15,03,57,14.90
2023,05,15,03,58,15.00
2023,05,15,03,59,15.00
2023,05,15,04,00,15.10
2023,05,15,04,01,15.10
2023,05,15,04,02,15.20
2023,05,15,04,03,15.20
2023,05,15,04,04,15.30
2023,05,15,04,05,15.30
2023,05,15,04,06,15.30
2023,05,15,04,07,15.30
2023,05,15,04,08,15.30
2023,05,15,04,09,15.40
2023,05,15,04,10,15.40
2023,05,15,04,11,15.40
2023,05,15,04,12,15.40
2023,05,15,04,13,15.40
2023,05,15,04,14,15.40
2023,05,15,04,15,15.40
2023,05,15,04,16,15.40
2023,05,15,04,17,15.30
2023,05,15,04,18,15.30
2023,05,15,04,19,15.30
2023,05,15,04,20,15.20
2023,05,15,04,21,15.10
2023,05,15,04,22,15.10
2023,05,15,04,23,15.00
2023,05,15,04,24,14.90
2023,05,15,04,25,14.90
2023,05,15,04,26,14.80
2023,05,15,04,27,14.80
2023,05,15,04,28,14.70
2023,05,15,04,29,14.60
2023,05,15,04,30,14.60
2023,05,15,04,31,14.60
2023,05,15,04,32,14.50
2023,05,15,04,33,14.50
2023,05,15,04,34,14.50
2023,05,15,04,35,14.50
2023,05,15,04,36,14.50
2023,05,15,04,37,14.50
2023,05,15,04,38,14.50
2023,05,15,04,39,14.60
2023,05,15,04,40,14.60
2023,05,15,04,41,14.60
2023,05,15,04,42,14.70
2023,05,15,04,43,14.70
2023,05,15,04,44,14.80
2023,05,15,04,45,14.80
2023,05,15,04,46,14.80
2023,05,15,04,47,14.90
2023,05,15,04,48,14.90
2023,05,15,04,49,15.00
2023,05,15,04,50,15.10
2023,05,15,04,51,15.10
2023,05,15,04,52,15.20
2023,05,15,04,53,15.20
2023,05,15,04,54,15.30
2023,05,15,04,55,15.30
2023,05,15,04,56,15.30
2023,05,15,04,57,15.30
2023,05,15,04,58,15.30
2023,05,15,04,59,15.30
2023,05,15,05,00,15.30
2023,05,15,05,01,15.40
2023,05,15,05,02,15.40
2023,05,15,05,03,15.40
2023,05,15,05,04,15.40
2023,05,15,05,05,15.40
2023,05,15,05,06,15.40
2023,05,15,05,07,15.30
2023,05,15,05,08,15.30
2023,05,15,05,09,15.30
2023,05,15,05,10,15.30
2023,05,15,05,11,15.30
2023,05,15,05,12,15.30
2023,05,15,05,13,15.30
2023,05,15,05,14,15.30
2023,05,15,05,16,15.30
2023,05,15,05,17,15.30
2023,05,15,05,19,15.30
2023,05,15,05,21,15.30
2023,05,15,05,22,15.30
2023,05,15,05,23,15.30
2023,05,15,05,24,15.30
2023,05,15,05,26,15.30
2023,05,15,05,27,15.30
2023,05,15,05,28,15.30
2023,05,15,05,29,15.30
2023,05,15,05,30,15.30
2023,05,15,05,31,15.30
2023,05,15,05,32,15.40
2023,05,15,05,33,15.40
2023,05,15,05,34,15.40
2023,05,15,05,35,15.40
2023,05,15,05,36,15.40
2023,05,15,05,37,15.40
2023,05,15,05,38,15.40
2023,05,15,05,39,15.40
2023,05,15,05,40,15.30
2023,05,15,05,41,15.30
2023,05,15,05,42,15.30
2023,05,15,05,43,15.30
2023,05,15,05,44,15.30
2023,05,15,05,45,15.30
2023,05,15,05,46,15.30
2023,05,15,05,47,15.30
2023,05,15,05,48,15.30
2023,05,15,05,49,15.30
2023,05,15,05,50,15.30
2023,05,15,05,51,15.30
2023,05,15,05,52,15.30
2023,05,15,05,53,15.20
2023,05,15,05,54,15.20
2023,05,15,05,55,15.20
2023,05,15,05,56,15.10
2023,05,15,05,57,15.10
2023,05,15,05,58,15.00
2023,05,15,05,59,14.90
2023,05,15,06,00,14.90
2023,05,15,06,01,14.80
2023,05,15,06,02,14.80
2023,05,15,06,03,14.70
2023,05,15,06,04,14.70
2023,05,15,06,05,14.70
2023,05,15,06,06,14.60
2023,05,15,06,07,14.60
2023,05,15,06,08,14.60
2023,05,15,06,09,14.50
2023,05,15,06,10,14.50
2023,05,15,06,11,14.50
2023,05,15,06,12,14.50
2023,05,15,06,13,14.50
2023,05,15,06,14,14.50
2023,05,15,06,15,14.50
2023,05,15,06,16,14.50
2023,05,15,06,17,14.50
2023,05,15,06,18,14.50
2023,05,15,06,19,14.50
2023,05,15,06,20,14.50
2023,05,15,06,21,14.50
2023,05,15,06,22,14.50
2023,05,15,06,23,14.50
2023,05,15,06,24,14.50
2023,05,15,06,25,14.50
2023,05,15,06,26,14.50
2023,05,15,06,27,14.50
2023,05,15,06,28,14.40
2023,05,15,06,29,14.40
2023,05,15,06,30,14.40
2023,05,15,06,32,14.40
2023,05,15,06,33,14.40
2023,05,15,06,34,14.40
2023,05,15,06,35,14.40
2023,05,15,06,36,14.40
2023,05,15,06,37,14.40
2023,05,15,06,38,14.40
2023,05,15,06,39,14.40
2023,05,15,06,40,14.40
2023,05,15,06,41,14.40
2023,05,15,06,42,14.40
2023,05,15,06,43,14.40
2023,05,15,06,44,14.40
2023,05,15,06,45,14.30
2023,05,15,06,46,14.30
2023,05,15,06,47,14.30
2023,05,15,06,48,14.30
2023,05,15,06,49,14.30
2023,05,15,06,50,14.30
2023,05,15,06,51,14.30
2023,05,15,06,52,14.30
2023,05,15,06,53,14.30
2023,05,15,06,54,14.30
2023,05,15,06,55,14.30
2023,05,15,06,56,14.30
2023,05,15,06,57,14.30
2023,05,15,06,58,14.20
2023,05,15,06,59,14.20
2023,05,15,07,00,14.20
2023,05,15,07,01,14.20
2023,05,15,07,02,14.20
2023,05,15,07,03,14.20
2023,05,15,07,04,14.20
2023,05,15,07,05,14.20
2023,05,15,07,06,14.20
2023,05,15,07,07,14.20
2023,05,15,07,08,14.20
2023,05,15,07,09,14.20
2023,05,15,07,10,14.20
2023,05,15,07,11,14.20
2023,05,15,07,12,14.20
2023,05,15,07,13,14.20
2023,05,15,07,14,14.20
2023,05,15,07,15,14.20
2023,05,15,07,16,14.10
2023,05,15,07,17,14.10
2023,05,15,07,18,14.10
2023,05,15,07,19,14.10
2023,05,15,07,20,14.10
2023,05,15,07,21,14.10
2023,05,15,07,22,14.10
2023,05,15,07,23,14.10
2023,05,15,07,24,14.10
2023,05,15,07,25,14.10
2023,05,15,07,26,14.10
2023,05,15,07,27,14.10
2023,05,15,07,28,14.20
2023,05,15,07,29,14.20
2023,05,15,07,30,14.20
2023,05,15,07,31,14.20
2023,05,15,07,32,14.20
2023,05,15,07,33,14.20
2023,05,15,07,34,14.20
2023,05,15,07,35,14.30
2023,05,15,07,36,14.30
2023,05,15,07,37,14.30
2023,05,15,07,38,14.40
2023,05,15,07,39,14.40
2023,05,15,07,40,14.40
2023,05,15,07,41,14.40
2023,05,15,07,42,14.40
2023,05,15,07,43,14.40
2023,05,15,07,44,14.40
2023,05,15,07,45,14.40
2023,05,15,07,46,14.40
2023,05,15,07,47,14.40
2023,05,15,07,48,14.50
2023,05,15,07,49,14.50
2023,05,15,07,50,14.50
2023,05,15,07,51,14.60
2023,05,15,07,52,14.60
2023,05,15,07,53,14.60
2023,05,15,07,54,14.60
2023,05,15,07,55,14.60
2023,05,15,07,56,14.70
2023,05,15,07,57,14.70
2023,05,15,07,58,14.80
2023,05,15,07,59,14.80
2023,05,15,08,00,14.80
2023,05,15,08,01,14.80
2023,05,15,08,02,14.90
2023,05,15,08,03,14.90
2023,05,15,08,04,15.00
2023,05,15,08,05,15.10
2023,05,15,08,06,15.10
2023,05,15,08,07,15.20
2023,05,15,08,08,15.20
2023,05,15,08,09,15.30
2023,05,15,08,10,15.30
2023,05,15,08,11,15.30
2023,05,15,08,12,15.30
2023,05,15,08,13,15.40
2023,05,15,08,14,15.40
2023,05,15,08,15,15.50
2023,05,15,08,16,15.50
2023,05,15,08,17,15.50
2023,05,15,08,18,15.50
2023,05,15,08,19,15.50
2023,05,15,08,20,15.50
2023,05,15,08,21,15.50
2023,05,15,08,22,15.50
2023,05,15,08,23,15.50
2023,05,15,08,24,15.50
2023,05,15,08,25,15.50
2023,05,15,08,26,15.50
2023,05,15,08,27,15.50
2023,05,15,08,28,15.50
2023,05,15,08,29,15.60
2023,05,15,08,30,15.60
2023,05,15,08,31,15.70
2023,05,15,08,32,15.80
2023,05,15,08,33,15.80
2023,05,15,08,34,15.90
2023,05,15,08,35,15.90
2023,05,15,08,36,16.10
2023,05,15,08,37,16.10
2023,05,15,08,38,16.20
2023,05,15,08,39,16.30
2023,05,15,08,40,16.40
2023,05,15,08,41,16.60
2023,05,15,08,42,16.70
2023,05,15,08,43,16.70
2023,05,15,08,44,16.70
2023,05,15,08,45,16.70
2023,05,15,08,46,16.70
2023,05,15,08,47,16.80
2023,05,15,08,48,16.90
2023,05,15,08,49,17.00
2023,05,15,08,50,17.10
2023,05,15,08,51,17.10
2023,05,15,08,52,17.20
2023,05,15,08,53,17.20
2023,05,15,08,54,17.30
2023,05,15,08,55,17.30
2023,05,15,08,56,17.40
2023,05,15,08,57,17.50
2023,05,15,08,58,17.50
2023,05,15,08,59,17.60
2023,05,15,09,00,17.60
2023,05,15,09,01,17.60
2023,05,15,09,02,17.60
2023,05,15,09,03,17.60
2023,05,15,09,04,17.50
2023,05,15,09,05,17.50
2023,05,15,09,06,17.50
2023,05,15,09,07,17.50
2023,05,15,09,08,17.60
2023,05,15,09,09,17.60
2023,05,15,09,10,17.60
2023,05,15,09,11,17.70
2023,05,15,09,12,17.70
2023,05,15,09,13,17.80
2023,05,15,09,14,17.90
2023,05,15,09,15,17.90
2023,05,15,09,16,17.90
2023,05,15,09,17,17.90
2023,05,15,09,18,17.90
2023,05,15,09,19,17.90
2023,05,15,09,20,17.90
2023,05,15,09,21,18.10
2023,05,15,09,22,18.10
2023,05,15,09,24,18.20
2023,05,15,09,26,18.20
2023,05,15,09,27,18.30
2023,05,15,09,28,18.30
2023,05,15,09,29,18.40
2023,05,15,09,31,18.60
2023,05,15,09,32,18.70
2023,05,15,09,33,18.80
2023,05,15,09,34,18.90
2023,05,15,09,36,19.10
2023,05,15,09,37,19.10
2023,05,15,09,38,19.20
2023,05,15,09,39,19.30
2023,05,15,09,40,19.40
2023,05,15,09,41,19.50
2023,05,15,09,42,19.60
2023,05,15,09,43,19.60
2023,05,15,09,44,19.70
2023,05,15,09,45,19.70
2023,05,15,09,46,19.60
2023,05,15,09,47,19.60
2023,05,15,09,48,19.60
2023,05,15,09,49,19.50
2023,05,15,09,50,19.50
2023,05,15,09,51,19.50
2023,05,15,09,52,19.60
2023,05,15,09,53,19.60
2023,05,15,09,54,19.60
2023,05,15,09,55,19.60
2023,05,15,09,56,19.60
2023,05,15,09,57,19.60
2023,05,15,09,58,19.70
2023,05,15,09,59,19.70
2023,05,15,10,00,19.80
2023,05,15,10,01,19.80
2023,05,15,10,02,19.90
2023,05,15,10,03,19.90
2023,05,15,10,04,19.90
2023,05,15,10,05,20.10
2023,05,15,10,06,20.10
2023,05,15,10,07,20.10
2023,05,15,10,08,20.20
2023,05,15,10,09,20.20
2023,05,15,11,23,21.40
2023,05,15,11,24,21.40
2023,05,15,11,25,21.60
2023,05,15,11,26,21.60
2023,05,15,11,27,21.60
2023,05,15,11,28,21.60
2023,05,15,11,29,21.60
2023,05,15,11,30,21.60
2023,05,15,11,31,21.60
2023,05,15,11,32,21.60
2023,05,15,11,33,21.70
2023,05,15,11,34,21.70
2023,05,15,11,35,21.70
2023,05,15,11,36,21.70
2023,05,15,11,37,21.80
2023,05,15,11,38,21.80
2023,05,15,11,39,21.80
2023,05,15,11,40,21.80
2023,05,15,11,41,21.80
2023,05,15,11,42,21.80
2023,05,15,11,43,21.90
2023,05,15,11,44,21.90
2023,05,15,11,45,21.90
2023,05,15,11,46,22.00
2023,05,15,11,47,22.00
2023,05,15,11,48,22.00
2023,05,15,11,49,22.10
2023,05,15,11,50,22.10
2023,05,15,11,51,22.20
2023,05,15,11,52,22.20
2023,05,15,11,53,22.20
2023,05,15,11,54,22.30
2023,05,15,11,55,22.30
2023,05,15,11,56,22.30
2023,05,15,11,57,22.30
2023,05,15,11,58,22.30
2023,05,15,11,59,22.30
2023,05,15,12,00,22.40
2023,05,15,12,01,22.40
2023,05,15,12,02,22.40
2023,05,15,12,03,22.50
2023,05,15,12,04,22.50
2023,05,15,12,05,22.50
2023,05,15,12,06,22.60
2023,05,15,12,07,22.60
2023,05,15,12,08,22.60
2023,05,15,12,09,22.70
2023,05,15,12,10,22.70
2023,05,15,12,11,22.80
2023,05,15,12,12,22.90
2023,05,15,12,13,22.90
2023,05,15,12,14,22.90
2023,05,15,12,15,23.10
2023,05,15,12,16,23.20
2023,05,15,12,17,23.20
2023,05,15,12,18,23.20
2023,05,15,12,19,23.20
2023,05,15,12,20,23.30
2023,05,15,12,21,23.30
2023,05,15,12,22,23.30
2023,05,15,12,23,23.30
2023,05,15,12,24,23.30
2023,05,15,12,25,23.30
2023,05,15,12,26,23.40
2023,05,15,12,27,23.40
2023,05,15,12,28,23.60
2023,05,15,12,29,23.70
2023,05,15,12,30,23.70
2023,05,15,12,32,23.70
2023,05,15,12,33,23.70
2023,05,15,12,34,23.80
2023,05,15,12,35,23.80
2023,05,15,12,36,23.80
2023,05,15,12,37,23.90
2023,05,15,12,38,23.90
2023,05,15,12,39,24.10
2023,05,15,12,40,24.10
2023,05,15,12,41,24.10
2023,05,15,12,42,24.20
2023,05,15,12,43,24.30
2023,05,15,12,44,24.40
2023,05,15,12,45,24.40
2023,05,15,12,46,24.50
2023,05,15,12,47,24.60
2023,05,15,12,48,24.70
2023,05,15,12,49,24.80
2023,05,15,12,50,24.90
2023,05,15,12,51,24.90
2023,05,15,12,52,25.00
2023,05,15,12,53,25.10
2023,05,15,12,54,25.10
2023,05,15,12,55,25.20
2023,05,15,12,56,25.20
2023,05,15,12,57,25.20
2023,05,15,12,58,25.20
2023,05,15,12,59,25.30
2023,05,15,13,00,25.30
2023,05,15,13,01,25.30
2023,05,15,13,02,25.40
2023,05,15,13,03,25.40
2023,05,15,13,04,25.40
2023,05,15,13,05,25.50
2023,05,15,13,06,25.40
2023,05,15,13,07,25.40
2023,05,15,13,08,25.30
2023,05,15,13,09,25.20
2023,05,15,13,10,25.00
2023,05,15,13,11,24.80
2023,05,15,13,12,24.60
2023,05,15,13,13,24.30
2023,05,15,13,14,24.10
2023,05,15,13,15,23.90
2023,05,15,13,16,23.70
2023,05,15,13,17,23.60
2023,05,15,13,18,23.30
2023,05,15,13,19,23.30
2023,05,15,13,20,23.20
2023,05,15,13,21,23.20
2023,05,15,13,22,23.20
2023,05,15,13,23,23.20
2023,05,15,13,24,23.30
2023,05,15,13,25,23.30
2023,05,15,13,26,23.40
2023,05,15,13,27,23.60
2023,05,15,13,28,23.60
2023,05,15,13,29,23.60
2023,05,15,13,30,23.60
2023,05,15,13,31,23.60
2023,05,15,13,32,23.40
2023,05,15,13,33,23.40
2023,05,15,13,34,23.30
2023,05,15,13,35,23.30
2023,05,15,13,36,23.30
2023,05,15,13,37,23.30
2023,05,15,13,38,23.20
2023,05,15,13,39,23.20
2023,05,15,13,40,23.20
2023,05,15,13,41,23.30
2023,05,15,13,42,23.30
2023,05,15,13,43,23.30
2023,05,15,13,44,23.40
2023,05,15,13,45,23.60
2023,05,15,13,46,23.60
2023,05,15,13,47,23.60
2023,05,15,13,48,23.60
2023,05,15,13,49,23.40
2023,05,15,13,50,23.30
2023,05,15,13,51,23.20
2023,05,15,13,52,23.10
2023,05,15,13,53,22.90
2023,05,15,13,54,22.90
2023,05,15,13,55,22.90
2023,05,15,13,56,22.90
2023,05,15,13,57,23.10
2023,05,15,13,58,23.10
2023,05,15,13,59,23.10
2023,05,15,14,00,22.90
2023,05,15,14,01,22.80
2023,05,15,14,02,22.70
2023,05,15,14,03,22.50
2023,05,15,14,04,22.30
2023,05,15,14,05,22.10
2023,05,15,14,06,22.00
2023,05,15,14,07,21.80
2023,05,15,14,08,21.70
2023,05,15,14,09,21.60
2023,05,15,14,10,21.60
2023,05,15,14,11,21.60
2023,05,15,14,12,21.70
2023,05,15,14,13,21.80
2023,05,15,14,14,21.90
2023,05,15,14,15,22.10
2023,05,15,14,16,22.20
2023,05,15,14,17,22.30
2023,05,15,14,18,22.50
2023,05,15,14,19,22.50
2023,05,15,14,20,22.60
2023,05,15,14,21,22.80
2023,05,15,14,22,22.90
2023,05,15,14,23,22.90
2023,05,15,14,24,23.20
2023,05,15,14,25,23.20
2023,05,15,14,26,23.30
2023,05,15,14,27,23.40
2023,05,15,14,28,23.60
2023,05,15,14,29,23.70
2023,05,15,14,30,23.80
2023,05,15,14,31,23.90
2023,05,15,14,32,24.10
2023,05,15,14,33,24.20
2023,05,15,14,34,24.30
2023,05,15,14,35,24.40
2023,05,15,14,36,24.60
2023,05,15,14,37,24.70
2023,05,15,14,38,24.80
2023,05,15,14,39,24.80
2023,05,15,14,40,24.80
2023,05,15,14,41,24.70
2023,05,15,14,42,24.70
2023,05,15,14,43,24.80
2023,05,15,14,44,24.70
2023,05,15,14,45,24.60
2023,05,15,14,46,24.60
2023,05,15,14,47,24.50
2023,05,15,14,48,24.30
2023,05,15,14,49,24.10
2023,05,15,14,50,23.80
2023,05,15,14,51,23.60
2023,05,15,14,53,23.30
2023,05,15,14,54,23.20
2023,05,15,14,56,23.30
2023,05,15,14,57,23.30
2023,05,15,14,59,23.40
2023,05,15,15,01,23.60
2023,05,15,15,02,23.60
2023,05,15,15,03,23.70
2023,05,15,15,04,23.70
2023,05,15,15,05,23.70
2023,05,15,15,06,23.70
2023,05,15,15,07,23.70
2023,05,15,15,08,23.80
2023,05,15,15,09,23.80
2023,05,15,15,10,23.80
2023,05,15,15,11,23.80
2023,05,15,15,12,23.90
2023,05,15,15,13,23.90
2023,05,15,15,14,24.10
2023,05,15,15,15,24.10
2023,05,15,15,16,24.20
2023,05,15,15,17,24.20
2023,05,15,15,18,24.30
2023,05,15,15,19,24.40
2023,05,15,15,20,24.50
2023,05,15,15,21,24.50
2023,05,15,15,22,24.60
2023,05,15,15,23,24.70
2023,05,15,15,24,24.80
2023,05,15,15,25,24.90
2023,05,15,15,26,24.90
2023,05,15,15,27,25.00
2023,05,15,15,28,25.10
2023,05,15,15,29,25.20
2023,05,15,15,30,25.20
2023,05,15,15,31,25.30
2023,05,15,15,32,25.30
2023,05,15,15,33,25.40
2023,05,15,15,34,25.40
2023,05,15,15,35,25.40
2023,05,15,15,36,25.50
2023,05,15,15,37,25.50
2023,05,15,15,38,25.50
2023,05,15,15,39,25.60
2023,05,15,15,40,25.60
2023,05,15,15,41,25.60
2023,05,15,15,42,25.60
2023,05,15,15,43,25.60
2023,05,15,15,44,25.60
2023,05,15,15,45,25.60
2023,05,15,15,46,25.60
2023,05,15,15,47,25.70
2023,05,15,15,48,25.70
2023,05,15,15,49,25.70
2023,05,15,15,50,25.80
2023,05,15,15,51,25.80
2023,05,15,15,52,25.80
2023,05,15,15,53,25.90
2023,05,15,15,54,25.90
2023,05,15,15,55,25.90
2023,05,15,15,56,26.00
2023,05,15,15,57,26.00
2023,05,15,15,58,26.00
2023,05,15,15,59,26.00
2023,05,15,16,00,26.00
2023,05,15,16,01,26.00
2023,05,15,16,02,26.00
2023,05,15,16,03,26.00
2023,05,15,16,04,26.00
2023,05,15,16,05,26.00
2023,05,15,16,06,26.00
2023,05,15,16,07,26.00
2023,05,15,16,08,26.10
2023,05,15,16,09,26.00
2023,05,15,16,10,26.10
2023,05,15,16,11,26.00
2023,05,15,16,12,26.00
2023,05,15,16,13,26.00
2023,05,15,16,14,26.00
2023,05,15,16,15,26.10
2023,05,15,16,16,26.10
2023,05,15,16,17,26.10
2023,05,15,16,18,26.20
2023,05,15,16,19,26.30
2023,05,15,16,20,26.40
2023,05,15,16,21,26.60
2023,05,15,16,22,26.60
2023,05,15,16,23,26.70
2023,05,15,16,24,26.80
2023,05,15,16,25,26.90
2023,05,15,16,26,26.90
2023,05,15,16,27,26.90
2023,05,15,16,28,26.90
2023,05,15,16,29,26.80
2023,05,15,16,30,26.80
2023,05,15,16,31,26.70
2023,05,15,16,32,26.60
2023,05,15,16,33,26.40
2023,05,15,16,34,26.20
2023,05,15,16,35,26.00
2023,05,15,16,36,25.80
2023,05,15,16,37,25.70
2023,05,15,16,38,25.50
2023,05,15,16,39,25.40
2023,05,15,16,40,25.30
2023,05,15,16,41,25.20
2023,05,15,16,42,25.00
2023,05,15,16,43,24.80
2023,05,15,16,44,24.60
2023,05,15,16,45,24.50
2023,05,15,16,46,24.50
2023,05,15,16,47,24.50
2023,05,15,16,48,24.50
2023,05,15,16,49,24.50
2023,05,15,16,50,24.60
2023,05,15,16,51,24.60
2023,05,15,16,52,24.70
2023,05,15,16,53,24.70
2023,05,15,16,54,24.80
2023,05,15,16,55,24.80
2023,05,15,16,56,24.90
2023,05,15,16,57,25.00
2023,05,15,16,58,25.10
2023,05,15,16,59,25.10
2023,05,15,17,00,25.20
2023,05,15,17,01,25.30
2023,05,15,17,02,25.30
2023,05,15,17,03,25.40
2023,05,15,17,04,25.50
2023,05,15,17,05,25.60
2023,05,15,17,06,25.70
2023,05,15,17,07,25.70
2023,05,15,17,08,25.80
2023,05,15,17,09,25.90
2023,05,15,17,10,26.00
2023,05,15,17,11,26.00
2023,05,15,17,12,26.10
2023,05,15,17,13,26.10
2023,05,15,17,14,26.20
2023,05,15,17,15,26.20
2023,05,15,17,16,26.20
2023,05,15,17,17,26.30
2023,05,15,17,18,26.30
2023,05,15,17,19,26.40
2023,05,15,17,20,26.40
2023,05,15,17,21,26.60
2023,05,15,17,22,26.60
2023,05,15,17,23,26.60
2023,05,15,17,24,26.60
2023,05,15,17,25,26.60
2023,05,15,17,26,26.60
2023,05,15,17,27,26.70
2023,05,15,17,28,26.70
2023,05,15,17,29,26.70
2023,05,15,17,30,26.60
2023,05,15,17,31,26.60
2023,05,15,17,32,26.60
2023,05,15,17,33,26.60
2023,05,15,17,34,26.60
2023,05,15,17,35,26.60
2023,05,15,17,36,26.60
2023,05,15,17,37,26.60
2023,05,15,17,38,26.60
2023,05,15,17,39,26.70
2023,05,15,17,40,26.80
2023,05,15,17,41,26.80
2023,05,15,17,42,26.90
2023,05,15,17,43,26.90
2023,05,15,17,44,27.10
2023,05,15,17,45,27.10
2023,05,15,17,46,26.90
2023,05,15,17,47,26.90
2023,05,15,17,48,26.90
2023,05,15,17,49,26.90
2023,05,15,17,50,26.90
2023,05,15,17,51,26.80
2023,05,15,17,52,26.80
2023,05,15,17,53,26.80
2023,05,15,17,54,26.80
2023,05,15,17,55,26.80
2023,05,15,17,56,26.80
2023,05,15,17,57,26.80
2023,05,15,17,58,26.80
2023,05,15,17,59,26.80
2023,05,15,18,00,26.80
2023,05,15,18,01,26.80
2023,05,15,18,02,26.80
2023,05,15,18,03,26.80
2023,05,15,18,04,26.80
2023,05,15,18,05,26.80
2023,05,15,18,06,26.90
2023,05,15,18,07,26.90
2023,05,15,18,08,26.90
2023,05,15,18,09,26.90
2023,05,15,18,10,27.10
2023,05,15,18,11,27.10
2023,05,15,18,12,27.10
2023,05,15,18,13,27.10
2023,05,15,18,14,27.10
2023,05,15,18,15,27.10
2023,05,15,18,16,27.10
2023,05,15,18,17,27.20
2023,05,15,18,18,27.20
2023,05,15,18,19,27.10
2023,05,15,18,20,27.10
2023,05,15,18,21,26.80
2023,05,15,18,22,26.60
2023,05,15,18,23,26.60
2023,05,15,18,24,26.30
2023,05,15,18,25,26.10
2023,05,15,18,26,25.80
2023,05,15,18,27,25.60
2023,05,15,18,28,25.40
2023,05,15,18,29,25.20
2023,05,15,18,30,25.10
2023,05,15,18,32,24.90
2023,05,15,18,33,24.80
2023,05,15,18,34,24.80
2023,05,15,18,36,24.70
2023,05,15,18,37,24.70
2023,05,15,18,38,24.70
2023,05,15,18,39,24.70
2023,05,15,18,41,24.70
2023,05,15,18,42,24.80
2023,05,15,18,43,24.80
2023,05,15,18,44,24.80
2023,05,15,18,45,24.90
2023,05,15,18,46,24.90
2023,05,15,18,47,25.00
2023,05,15,18,48,25.00
2023,05,15,18,49,25.00
2023,05,15,18,50,25.10
2023,05,15,18,51,25.10
2023,05,15,18,52,25.10
2023,05,15,18,53,25.10